Flag for France Weather past 2 weeks in Strasbourg, France

Now
61 °F

Rain. Fog.


Feels Like: 61 °F
Forecast: 58 / 69 °F
Wind: 3 mph from North

Location: Strasbourg Airport

Current Time: Sep 20, 2014 at 4:16:55 AM

Latest Report: Sep 20, 2014 at 3:30 AM


Visibility: 3 mi

Pressure: 29.98 "Hg

Humidity: 94%

Dew point: 59 °F

Location of StrasbourgLocation

Historic Weather in Strasbourg — Graph

°F

Strasbourg temperature yesterday

Maximum temperature yesterday: 79 °F (at 1:30 PM)
Minimum temperature yesterday: 59 °F (at 12:30 AM)
Average temperature yesterday: 67 °F

Past Weeks' High & Low Weather Summary

 TemperatureHumidityPressure
High79 °F (Sep 6, 1:30 PM)100% (Sep 5, 3:30 AM)30.15 "Hg (Sep 5, 3:30 AM)
Low50 °F (Sep 11, 5:30 AM)46% (Sep 10, 5:00 PM)29.83 "Hg (Sep 17, 4:00 PM)
Average64 °F82%29.99 "Hg
* Reported Sep 5 3:00 AM — Sep 20 3:00 AM, Strasbourg, Weather by CustomWeather, © 2014

Note: Actual official high and low records may vary slightly from our data, if they occured in-between our weather recording intervals... More about our weather records

Advertising

Strasbourg weather history for previous 24 hours

 ConditionsComfort  
Time TempWeatherWind HumidityBarometerVisibility
3:00 AM
Sep 20
61 °FCool.2 mph94%29.98 "HgN/A
2:00 AM59 °FClear.2 mph100%29.98 "HgN/A
1:30 AM59 °FClear.1 mph100%29.98 "HgN/A
1:00 AM59 °FClear.3 mph94%29.98 "HgN/A
12:30 AM59 °FClear.1 mph94%29.98 "HgN/A
12:00 AM61 °FClear.3 mph94%29.98 "HgN/A
11:30 PM
Sep 19
61 °FClear.2 mph94%29.98 "HgN/A
11:00 PM61 °FClear.2 mph94%29.98 "HgN/A
10:30 PM61 °FClear.1 mph94%29.98 "HgN/A
10:00 PM64 °FClear.1 mph88%29.95 "HgN/A
9:30 PM64 °FClear.3 mph88%29.95 "HgN/A
9:00 PM66 °FClear.3 mph83%29.95 "HgN/A
8:30 PM68 °FClear.3 mph78%29.95 "HgN/A
8:00 PM68 °FMostly cloudy.6 mph78%29.95 "HgN/A
7:30 PM70 °FClear.5 mph73%29.95 "HgN/A
7:00 PM70 °FPartly sunny.7 mph78%29.95 "HgN/A
6:30 PM72 °FClear.7 mph69%29.92 "HgN/A
6:00 PM73 °FClear.7 mph65%29.92 "HgN/A
5:30 PM75 °FClear.6 mph65%29.92 "HgN/A
5:00 PM75 °FMild.7 mph65%29.92 "HgN/A
4:30 PM75 °FMild.9 mph65%29.92 "HgN/A
4:00 PM79 °FBroken clouds.10 mph58%29.92 "HgN/A
3:30 PM79 °FPartly sunny.5 mph58%29.92 "HgN/A
3:00 PM77 °FWarm.6 mph65%29.92 "HgN/A
2:30 PM75 °FMore clouds than sun.8 mph65%29.92 "HgN/A
2:00 PM75 °FClear.7 mph69%29.92 "HgN/A
1:30 PM79 °FClear.9 mph58%29.92 "HgN/A
1:00 PM77 °FClear.8 mph61%29.92 "HgN/A
12:30 PM75 °FClear.8 mph69%29.92 "HgN/A
12:00 PM73 °FPassing clouds.7 mph74%29.95 "HgN/A
11:30 AM72 °FClear.6 mph78%29.95 "HgN/A
11:00 AM70 °FClear.5 mph83%29.95 "HgN/A
10:30 AM68 °FClear.5 mph83%29.92 "HgN/A
10:00 AM68 °FPassing clouds.3 mph88%29.92 "HgN/A
9:30 AM66 °FPassing clouds.3 mph88%29.95 "HgN/A
9:00 AM64 °FPartly sunny.No wind94%29.95 "HgN/A
8:30 AM63 °FPassing clouds.3 mph94%29.95 "HgN/A
8:00 AM63 °FPassing clouds.5 mph94%29.92 "HgN/A
7:30 AM63 °FOvercast.5 mph94%29.92 "Hg5 mi
7:00 AM63 °FPassing clouds.2 mph94%29.92 "Hg5 mi
6:30 AM63 °FPassing clouds.1 mph94%29.92 "HgN/A
6:00 AM63 °FMostly cloudy.1 mph94%29.92 "HgN/A
5:30 AM63 °FPassing clouds.5 mph94%29.92 "HgN/A
5:00 AM63 °FPassing clouds.6 mph94%29.92 "HgN/A
4:30 AM63 °FMostly cloudy.3 mph94%29.92 "HgN/A
4:00 AM63 °FLight rain. Mostly cloudy.2 mph94%29.92 "HgN/A
Weather by CustomWeather, © 2014

See weather overviewHow to use our weather pages